This is the latest recevied weather packets stored in our database for station/object KA3RQR. If no packets are shown the sender has not sent any weather packets the latest 10 day(s).
| Time | Temp. | Humidity | Pressure | Rain* | Wind** | Luminosity | Snow |
|---|---|---|---|---|---|---|---|
| 1777905295 | 17.78° C | 43% | 1014.2 hPa | 0 mm | - | 48 W/m² | - |
| 1777903780 | 16.67° C | 45% | 1014.3 hPa | 0 mm | - | 45 W/m² | - |
| 1777903476 | 16.67° C | 45% | 1014.3 hPa | 0 mm | - | 46 W/m² | - |
| 1777902869 | 15.56° C | 46% | 1014.4 hPa | 0 mm | - | 43 W/m² | - |
| 1777901961 | 15° C | 49% | 1014.5 hPa | 0 mm | - | 41 W/m² | - |
| 1777901659 | 14.44° C | 51% | 1014.7 hPa | 0 mm | - | 41 W/m² | - |
| 1777901355 | 14.44° C | 52% | 1014.7 hPa | 0 mm | - | 41 W/m² | - |
| 1777901053 | 13.89° C | 53% | 1014.6 hPa | 0 mm | - | 41 W/m² | - |
| 1777900750 | 13.89° C | 55% | 1014.6 hPa | 0 mm | - | 40 W/m² | - |
| 1777900447 | 13.33° C | 53% | 1014.7 hPa | 0 mm | - | 40 W/m² | - |
| 1777900144 | 13.33° C | 56% | 1014.9 hPa | 0 mm | - | 39 W/m² | - |
| 1777899841 | 12.78° C | 55% | 1014.7 hPa | 0 mm | - | 38 W/m² | - |
| 1777899538 | 12.78° C | 58% | 1015.1 hPa | 0 mm | - | 38 W/m² | - |
| 1777898327 | 11.67° C | 60% | 1014.9 hPa | 0 mm | - | 36 W/m² | - |
| 1777898024 | 11.67° C | 60% | 1015 hPa | 0 mm | - | 42 W/m² | - |
| 1777897720 | 11.67° C | 61% | 1015 hPa | 0 mm | - | 35 W/m² | - |
| 1777897417 | 11.67° C | 63% | 1015.2 hPa | 0 mm | - | 35 W/m² | - |
| 1777897113 | 11.11° C | 62% | 1015.1 hPa | 0 mm | - | 33 W/m² | - |
| 1777896809 | 11.11° C | 62% | 1015.1 hPa | 0 mm | - | 33 W/m² | - |
| 1777896507 | 10.56° C | 63% | 1015.2 hPa | 0 mm | - | 32 W/m² | - |
| 1777896204 | 10.56° C | 63% | 1015.1 hPa | 0 mm | - | 32 W/m² | - |
| 1777895902 | 10.56° C | 65% | 1015.2 hPa | 0 mm | - | 31 W/m² | - |
| 1777895599 | 10.56° C | 65% | 1015.2 hPa | 0 mm | - | 26 W/m² | - |
| 1777894691 | 10° C | 64% | 1015.5 hPa | 0 mm | - | 31 W/m² | - |
| 1777894388 | 10.56° C | 65% | 1015.4 hPa | 0 mm | - | 33 W/m² | - |
* Rain latest hour (hover to see other rain measurements)
** Current wind speed in m/s (hover to see current wind gust speed)